USA 340

Last updated on Thu Nov 14 2024 00:02:44 GMT+0000 (Coordinated Universal Time)

1 55138U 22144E 24315.06718951 -.00000256 00000+0 00000+0 0 9999 2 55138 4.1331 65.5964 0001704 136.6036 196.5881 0.99557898 5900
UTC large
Height (km)
Speed (km/s)
/
Latitude / Longitude
Inclination (degrees)
Orbital Period (minutes)
Azimuth
Elevation
Range (km)
Doppler Factor

Next 0 passes for location: London (51.5072 / 0.1276)

Sorry there are no passes over London.